Location: Kellogg
(38.0159°N, 90.0546°W)
Time: 02:35:00
(UTC+00:00)

SR - Pass Details

Date: 16 September 2024
Orbit: 577 x 855 km, 66.7° (Epoch: 10 October)

Event Time Altitude Azimuth Distance (km) Brightness Sun altitude
Rises 02:56:47 0° 345° (NNW) 2,943 ? -32.3°
Reaches altitude 10° 02:59:26 10° 0° (N) 2,076 ? -32.7°
Enters shadow 03:00:08 13° 7° (N) 1,883 ? -32.8°
Maximum altitude 03:03:10 23° 53° (NE) 1,465 - -33.3°
Drops below altitude 10° 03:07:05 10° 104° (ESE) 2,211 - -33.9°
Sets 03:10:00 0° 119° (ESE) 3,185 - -34.4°
